Location: Kuffner-Sternwarte
(48.2130°N, 16.2960°E)
Time: 03:28:51
(UTC+02:00)

COROT - Pass Details

Date: 26 March 2017
Orbit: 600 x 890 km, 90.0° (Epoch: 20 September)

Event Time Altitude Azimuth Distance (km) Brightness Sun altitude
Rises 01:57:49 0° 347° (NNW) 3,098 9.7 -33.5°
Reaches altitude 10° 03:00:41 10° 328° (NNW) 2,229 8.6 -33.2°
Enters shadow 03:00:52 11° 326° (NNW) 2,183 8.5 -33.2°
